Regional Weather Roundup
Issued by NWS

Home | Current Version | Previous Version | Text Only | Print | Product List | Glossary On
Versions: 1 2 3 4 5 6 7 8 9 10 11 12 13 14 15 16 17 18 19 20 21 22 23 24 25 26 27 28 29 30 31 32 33 34 35 36 37 38 39 40 41 42 43 44 45 46 47 48 49 50
000
ASUS43 KLSX 010157
RWRMO

WEATHER SUMMARY FOR MISSOURI
NATIONAL WEATHER SERVICE SPRINGFIELD MO
900 PM CDT MON AUG 31 2015

NOTE: "FAIR" INDICATES FEW OR NO CLOUDS BELOW 12,000 FEET WITH NO
       SIGNIFICANT WEATHER AND/OR OBSTRUCTIONS TO VISIBILITY.
       CURRENT SKY AND/OR WEATHER CONDITIONS ARE NOT AVAILABLE FOR
       CHILLICOTHE AND FARMINGTON.

MOZ001>031-035>038-043-044-053-054-010300-
...NORTHERN AND WESTERN MISSOURI...

CITY           SKY/WX    TMP DP  RH WIND       PRES   REMARKS
KANSAS CTY INT CLEAR     76  69  79 S7        29.96R
LEE`S SUMMIT   CLEAR     81  68  64 S8        29.98R
ST JOSEPH      CLEAR     77  71  82 S7        29.94R
CHILLICOTHE      N/A     77  71  82 CALM      29.97R

$$
MOZ066>068-077>081-088>096-101>105-010300-
...SOUTHWEST MISSOURI...

CITY           SKY/WX    TMP DP  RH WIND       PRES   REMARKS
SPRINGFIELD    CLEAR     78  69  73 S9        30.04R
JOPLIN         CLEAR     79  69  71 SE7       30.01R

$$
MOZ032>034-039>042-045>050-055>058-069>072-010300-
...CENTRAL MISSOURI...

CITY           SKY/WX    TMP DP  RH WIND       PRES   REMARKS
COLUMBIA       NOT AVBL
JEFFERSON CITY CLEAR     82  69  64 E5        29.99R
ROLLA          CLEAR     77  70  79 S7        30.04R
SEDALIA        CLEAR     78  69  73 S7        30.01R

$$
MOZ051-052-059>065-010300-
...EAST CENTRAL MISSOURI...

CITY           SKY/WX    TMP DP  RH WIND       PRES   REMARKS
ST LOUIS INTL  MOCLDY    82  72  71 SE10      30.03R

$$
MOZ072>076-082>087-097>100-106>115-010300-
...SOUTH CENTRAL AND SOUTHEAST MISSOURI...

CITY           SKY/WX    TMP DP  RH WIND       PRES   REMARKS
CAPE GIRARDEAU CLEAR     74  69  85 SE5       30.05R
POPLAR BLUFF   CLEAR     76  71  85 SE5       30.04R
WEST PLAINS    CLEAR     77  68  73 S6        30.09R

$$


USA.gov is the U.S. government's official web portal to all federal, state and local government web resources and services.